Regional Weather Roundup
Issued by NWS Midland/Odessa, TX

Skip options and go directly to product.
Home | Oldest Version | Next Version | Current Version | All | Text Only | Save Text | Print | Product List | Glossary On

Skip product version selection by date and time.   
098
ASUS44 KMAF 311801
RWRMAF
MIDLAND AREA WEATHER ROUNDUP
NATIONAL WEATHER SERVICE MIDLAND TX
100 PM CDT FRI JUL 31 2015

...IN SOUTHWEST TEXAS AND SOUTHEAST NEW MEXICO...

CITY           SKY/WX    TMP DP  RH WIND       PRES   REMARKS
ALPINE         SUNNY     86  53  31 SE10G17   30.33S
ANDREWS        FAIR      93  53  25 NE3       30.21F
ARTESIA        SUNNY     86  63  45 VRB3G12   30.24F
BIG SPRING     SUNNY     90  53  27 NW3       30.19F
CARLSBAD       SUNNY     91  59  33 NE6       30.21F
DRYDEN           N/A     97  58  27 VRB7      30.11F
FORT STOCKTON  SUNNY     94  55  26 E13G22    30.18F
GUAD PASS      SUNNY     81  56  42 E18       30.37F
HOBBS          MOSUNNY   91  48  22 S9        30.24F
MARFA          PTSUNNY   84  52  32 SE8G16    30.30F
MIDLAND AIRPK  SUNNY     95  51  22 CALM      30.19F
MIDLAND INTL   SUNNY     94  54  25 SE9       30.18F
ODESSA         SUNNY     94  52  24 CALM      30.20F
PECOS          SUNNY     92  50  23 W5        30.16F
PRESIDIO       FAIR      93  53  26 E8        30.14F
SEMINOLE       SUNNY     93  50  23 CALM      30.23F
SNYDER         SUNNY     91  59  35 N3        30.18F
WINK           SUNNY     95  52  23 VRB7      30.16F
$$
...OTHER STATIONS IN TEXAS...

CITY           SKY/WX    TMP DP  RH WIND       PRES   REMARKS
ABILENE        SUNNY     98  61  29 W6        30.12F
AMARILLO       CLOUDY    73  65  75 N9        30.29F
AUSTIN         MOSUNNY   97  69  40 N12       30.02F HX 103
BROWNSVILLE    CLOUDY    89  70  53 VRB3      30.01F
CORPUS CHRISTI PTSUNNY   96  67  38 VRB5      29.99F HX 100
DALLAS FTW     MOSUNNY   93  69  45 VRB5      30.07F
DEL RIO        SUNNY     97  64  33 SE7       30.04F
EL PASO        MOSUNNY   87  61  41 NE5       30.22F
HOUSTON INT    MOSUNNY   95  74  50 NE9G17    30.00F HX 105
LUBBOCK        PTSUNNY   90  68  48 NE10G17   30.23F
SAN ANGELO     SUNNY     96  61  31 N6        30.12F
SAN ANTONIO    PTSUNNY   95  67  39 E9        30.04F
WACO           SUNNY     98  71  41 VRB7      30.04F HX 106
WICHITA FALLS  NOT AVBL
$$
...OTHER LOCATIONS IN NEW MEXICO...

CITY           SKY/WX    TMP DP  RH WIND       PRES   REMARKS
ALAMAGORDO     SUNNY     88  55  33 S10G16    30.25F
ALBUQUERQUE    PTSUNNY   77  60  55 S5        30.36F
CANNON AFB     CLOUDY    77  64  62 N3        30.31F
CLOVIS         CLOUDY    79  63  57 NE5       30.32F
HOLLOMAN AFB   SUNNY     89  59  36 NW3       30.23F
ROSWELL        SUNNY     87  63  44 N8        30.25F
RUIDOSO          N/A    N/A N/A N/A MISG        N/A
SANTA FE       PTSUNNY   71  58  63 SW5       30.42F
TRUTH OR CONSE PTSUNNY   79  62  56 E6        30.30F
TUCUMCARI      CLOUDY    73  66  78 CALM      30.30S
$$

USA.gov is the U.S. government's official web portal to all federal, state and local government web resources and services.